TimeEST,TemperatureF,Dew PointF,Humidity,Sea Level PressureIn,VisibilityMPH,Wind Direction,Wind SpeedMPH,Gust SpeedMPH,PrecipitationIn,Events,Conditions,WindDirDegrees,DateUTC
12:50 AM,32.0,26.6,80,30.08,10.0,Calm,Calm,-,N/A,,Overcast,0,2013-03-06 05:50:00
12:53 AM,32.0,27.0,82,30.10,10.0,Calm,Calm,-,N/A,,Overcast,0,2013-03-06 05:53:00
1:09 AM,32.0,26.6,80,30.07,10.0,Calm,Calm,-,N/A,,Overcast,0,2013-03-06 06:09:00
1:42 AM,32.0,26.6,80,30.08,5.0,Calm,Calm,-,0.00,Snow,Light Snow,0,2013-03-06 06:42:00
1:53 AM,32.0,27.0,82,30.10,5.0,Calm,Calm,-,0.00,Snow,Light Snow,0,2013-03-06 06:53:00
3:53 AM,32.0,27.0,82,30.09,10.0,Calm,Calm,-,N/A,,Overcast,0,2013-03-06 08:53:00
4:50 AM,33.8,28.4,81,30.08,10.0,Calm,Calm,-,N/A,,Overcast,0,2013-03-06 09:50:00
4:53 AM,33.1,28.0,82,30.11,10.0,Calm,Calm,-,N/A,,Overcast,0,2013-03-06 09:53:00
5:12 AM,33.8,28.4,81,30.09,4.0,Calm,Calm,-,0.00,Snow,Light Snow,0,2013-03-06 10:12:00
5:39 AM,33.8,28.4,81,30.09,7.0,Calm,Calm,-,0.00,,Overcast,0,2013-03-06 10:39:00
5:51 AM,33.8,28.4,81,30.09,5.0,Calm,Calm,-,0.00,Snow,Light Snow,0,2013-03-06 10:51:00
5:53 AM,34.0,28.9,82,30.11,4.0,Calm,Calm,-,0.00,Snow,Light Snow,0,2013-03-06 10:53:00
6:04 AM,33.8,28.4,81,30.09,5.0,Calm,Calm,-,0.00,Snow,Light Snow,0,2013-03-06 11:04:00
6:53 AM,33.1,30.0,89,30.12,10.0,Calm,Calm,-,0.00,,Overcast,0,2013-03-06 11:53:00
7:18 AM,35.6,28.4,75,30.11,10.0,Variable,6.9,-,N/A,,Overcast,0,2013-03-06 12:18:00
7:53 AM,36.0,28.0,73,30.14,10.0,NE,8.1,-,N/A,,Overcast,50,2013-03-06 12:53:00
8:13 AM,35.6,28.4,75,30.14,3.0,ENE,6.9,-,0.00,Snow,Light Snow,60,2013-03-06 13:13:00
8:18 AM,35.6,28.4,75,30.14,1.8,ENE,4.6,-,0.00,Snow,Light Snow,70,2013-03-06 13:18:00
8:43 AM,35.6,30.2,81,30.14,3.0,NE,6.9,-,0.01,Snow,Light Snow,50,2013-03-06 13:43:00
8:53 AM,36.0,28.9,76,30.17,7.0,Variable,5.8,-,0.01,,Overcast,0,2013-03-06 13:53:00
9:53 AM,37.0,26.1,65,30.17,10.0,ENE,11.5,17.3,0.00,,Overcast,60,2013-03-06 14:53:00
10:53 AM,37.0,26.1,65,30.17,10.0,Variable,5.8,-,N/A,,Overcast,0,2013-03-06 15:53:00
11:13 AM,35.6,26.6,70,30.15,2.5,Variable,6.9,-,0.00,Snow,Light Snow,0,2013-03-06 16:13:00
11:20 AM,35.6,28.4,75,30.15,1.2,ESE,8.1,-,0.00,Snow,Light Snow,120,2013-03-06 16:20:00
11:28 AM,35.6,28.4,75,30.16,0.5,Variable,3.5,-,0.01,Snow,Snow,0,2013-03-06 16:28:00
11:33 AM,35.6,28.4,75,30.15,2.0,Calm,Calm,-,0.01,Snow,Light Snow,0,2013-03-06 16:33:00
11:40 AM,35.6,28.4,75,30.15,9.0,Calm,Calm,-,0.01,,Overcast,0,2013-03-06 16:40:00
11:53 AM,36.0,27.0,70,30.16,10.0,NE,8.1,-,0.01,,Overcast,50,2013-03-06 16:53:00
12:53 PM,36.0,24.1,62,30.16,10.0,NE,9.2,-,N/A,,Overcast,50,2013-03-06 17:53:00
1:00 PM,37.4,24.8,60,30.13,10.0,NE,8.1,-,N/A,,Overcast,50,2013-03-06 18:00:00
1:53 PM,37.0,24.1,59,30.15,8.0,NE,11.5,17.3,N/A,,Overcast,40,2013-03-06 18:53:00
2:53 PM,37.0,25.0,62,30.16,9.0,Variable,5.8,-,0.00,,Overcast,0,2013-03-06 19:53:00
3:14 PM,37.4,24.8,60,30.13,10.0,NE,5.8,-,N/A,,Overcast,50,2013-03-06 20:14:00
3:22 PM,37.4,24.8,60,30.13,10.0,Variable,4.6,-,N/A,,Overcast,0,2013-03-06 20:22:00
3:49 PM,37.4,26.6,65,30.14,8.0,Variable,6.9,-,N/A,,Overcast,0,2013-03-06 20:49:00
3:53 PM,37.0,26.1,65,30.15,8.0,NE,9.2,-,N/A,,Overcast,50,2013-03-06 20:53:00
4:06 PM,37.4,26.6,65,30.14,7.0,Variable,6.9,17.3,N/A,,Overcast,0,2013-03-06 21:06:00
4:18 PM,35.6,28.4,75,30.14,1.8,NE,6.9,-,0.00,Snow,Light Snow,50,2013-03-06 21:18:00
4:22 PM,35.6,28.4,75,30.14,2.5,ENE,9.2,-,0.00,Snow,Light Snow,60,2013-03-06 21:22:00
4:43 PM,35.6,28.4,75,30.14,10.0,ENE,4.6,-,0.00,,Overcast,60,2013-03-06 21:43:00
4:53 PM,36.0,27.0,70,30.16,10.0,NE,9.2,-,0.00,,Overcast,50,2013-03-06 21:53:00
5:38 PM,35.6,24.8,65,30.16,10.0,ENE,6.9,-,N/A,,Overcast,60,2013-03-06 22:38:00
5:50 PM,35.6,24.8,65,30.16,10.0,Calm,Calm,-,N/A,,Overcast,0,2013-03-06 22:50:00
5:53 PM,36.0,25.0,64,30.18,10.0,Calm,Calm,-,N/A,,Overcast,0,2013-03-06 22:53:00
6:53 PM,35.1,25.0,67,30.20,10.0,NE,9.2,16.1,N/A,,Overcast,50,2013-03-06 23:53:00
7:22 PM,33.8,26.6,75,30.18,5.0,Calm,Calm,-,0.00,Snow,Light Snow,0,2013-03-07 00:22:00
7:43 PM,33.8,26.6,75,30.18,9.0,Calm,Calm,-,0.00,,Overcast,0,2013-03-07 00:43:00
7:53 PM,34.0,26.1,73,30.20,10.0,North,3.5,-,0.00,,Overcast,350,2013-03-07 00:53:00
8:53 PM,34.0,23.0,64,30.19,10.0,ENE,8.1,-,N/A,,Overcast,60,2013-03-07 01:53:00
9:53 PM,34.0,21.9,61,30.18,10.0,NE,11.5,-,N/A,,Overcast,40,2013-03-07 02:53:00
10:35 PM,33.8,21.2,60,30.15,10.0,NE,6.9,-,N/A,,Overcast,50,2013-03-07 03:35:00
10:53 PM,34.0,21.9,61,30.17,10.0,NE,8.1,-,N/A,,Overcast,50,2013-03-07 03:53:00
11:53 PM,34.0,21.0,59,30.16,10.0,NE,9.2,16.1,N/A,,Overcast,50,2013-03-07 04:53:00